Location: Joplin
(37.0842°N, 94.5131°W)
Time: 06:22:32
(UTC-05:00)

Envisat - Visible Passes

Search period start: 19 August 2018 00:00
Search period end: 29 August 2018 00:00
Orbit: 764 x 766 km, 98.2° (Epoch: 19 August)

Date Brightness Start Highest point End Pass type
(mag) Time Alt. Az. Time Alt. Az. Time Alt. Az.
19 Aug 5.5 21:35:36 10° SW 21:39:12 19° W 21:42:48 10° NW visible
20 Aug 4.2 20:57:25 10° S 21:02:14 45° W 21:07:06 10° NNW visible
21 Aug 3.0 20:20:25 10° SSE 20:25:29 78° ENE 20:30:35 10° N visible
22 Aug 5.2 21:23:49 10° SSW 21:27:56 25° W 21:32:04 10° NW visible
23 Aug 3.7 20:46:04 10° S 20:51:02 58° W 20:56:04 10° NNW visible
24 Aug 5.8 21:51:18 10° WSW 21:53:43 13° W 21:56:10 10° WNW visible
25 Aug 4.8 21:12:13 10° SSW 21:16:42 31° W 21:21:12 10° NW visible
26 Aug 3.2 20:34:48 10° S 20:39:52 75° WSW 20:44:57 10° NNW visible
27 Aug 5.6 21:39:08 10° SW 21:42:27 17° W 21:45:47 10° NW visible
28 Aug 4.3 21:00:44 10° SSW 21:05:28 40° W 21:10:15 10° NNW visible
